Location: Unspecified
(40.7945°N, 111.1337°W)
Time: 13:03:32
(UTC-06:00)

Vanguard 1 Rocket - Visible Passes

Search period start: 17 June 2019 00:00
Search period end: 27 June 2019 00:00
Orbit: 652 x 4224 km, 34.3° (Epoch: 17 June)

Date Brightness Start Highest point End Pass type
(mag) Time Alt. Az. Time Alt. Az. Time Alt. Az.
17 Jun 8.0 22:01:00 10° WSW 22:10:10 51° S 22:14:57 13° ESE visible
18 Jun 8.8 00:29:45 10° W 00:32:13 19° WSW 00:32:13 19° WSW visible
18 Jun 7.7 23:16:56 10° W 23:23:53 39° SSW 23:24:57 36° S visible
19 Jun 8.1 22:03:32 10° W 22:13:02 51° S 22:17:41 15° ESE visible
20 Jun 9.1 00:32:55 10° WSW 00:34:57 16° WSW 00:34:57 16° WSW visible
20 Jun 8.0 23:19:42 10° W 23:26:39 34° SSW 23:27:39 32° S visible
21 Jun 8.2 22:06:06 10° W 22:15:51 49° SSW 22:20:22 16° SE visible
22 Jun 9.4 00:36:23 10° WSW 00:37:37 13° WSW 00:37:37 13° WSW visible
22 Jun 8.3 23:22:33 10° W 23:29:18 29° SSW 23:30:19 28° SSW visible
23 Jun 8.4 22:08:41 10° W 22:18:36 45° SSW 22:23:01 17° SE visible
24 Jun 8.7 23:25:30 10° W 23:31:51 24° SW 23:32:58 23° SSW visible
25 Jun 8.7 22:11:17 10° W 22:21:15 40° SSW 22:25:40 18° SE visible
26 Jun 9.1 23:28:41 10° W 23:34:15 19° SW 23:35:38 18° SSW visible
